www.pogodaiklimat.ru

Погода и климат >> Архив погоды >> Россия >> Якутия >> Анабар


ПОГОДА в Анабаре

  • Прогноз погоды в Анабаре
  • Монитор погоды в Анабаре

АРХИВ ПОГОДЫ в Анабаре

Время (UTC), дата Ветер
(напр.,м/с)
 
Видим.   Явления Облачность Т
(С)
Тd
(С)
f
(%)
Тe
(С)
Тes
(С)
Комфортность P
(гПа)
Po
(гПа)
Тmin
(С)
Tmax
(С)
R
(мм)
R24
(мм)
S
(см)
03 17.03 ЮЗ 1 20 км ясно -32.0 -33.1 90 -36 -35 опасность
обморожения
1022.6 1020.7
06 17.03 штиль 0 20 км ясно -30.6 -31.8 89 -31 -29 опасность
обморожения
1023.2 1021.3
09 17.03 ЮЗ 3 20 км 10/0
[Ci fib]
-31.0 -32.2 89 -41 -41 опасность
обморожения
1024.2 1022.3
12 17.03 ЮЗ 3 20 км 3/0
[Ci fib]
-34.0 -35.0 91 -44 -44 опасность
обморожения
1024.3 1022.4 -30.6
15 17.03 ЮЗ 3 20 км ясно -35.6 -36.6 90 -46 -46 опасность
обморожения
1024.0 1022.1
18 17.03 ЮЗ 3 20 км 4/0
[Ci fib]
-35.4 -36.6 89 -46 -46 опасность
обморожения
1023.6 1021.7
21 17.03 З 2 20 км 4/0
[Ci fib]
-36.0 -37.2 89 -44 -44 опасность
обморожения
1023.4 1021.5
00 18.03 З 3 20 км 3/0
[Ci fib]
-34.4 -35.6 89 -45 -45 опасность
обморожения
1023.1 1021.2 -36.1 10
03 18.03 З 1 20 км 10/0
[Ci fib]
-29.8 -30.9 90 -34 -32 опасность
обморожения
1022.8 1020.9
06 18.03 ЮЗ 1 20 км 6/0
[Ci fib]
-26.2 -27.4 90 -30 -28 1022.9 1021.0
09 18.03 Ю 1 20 км 3/0
[Ci fib]
-28.6 -29.8 89 -33 -32 опасность
обморожения
1023.0 1021.1
12 18.03 Ю 2 20 км ясно -31.4 -32.4 91 -39 -39 опасность
обморожения
1022.9 1021.0 -26.2
15 18.03 Ю 2 20 км ясно -32.7 -33.9 89 -41 -41 опасность
обморожения
1022.5 1020.6
18 18.03 Ю 2 20 км ясно -32.2 -33.4 89 -40 -40 опасность
обморожения
1022.0 1020.1
21 18.03 Ю 2 20 км ясно -33.5 -34.7 89 -42 -42 опасность
обморожения
1021.5 1019.6
00 19.03 Ю 3 20 км ясно -33.2 -34.4 89 -43 -43 опасность
обморожения
1020.8 1018.9 -33.6 10
03 19.03 Ю 3 20 км ясно -30.0 -31.1 90 -40 -38 опасность
обморожения
1020.2 1018.3
06 19.03 Ю 3 20 км ясно -27.2 -28.4 89 -36 -35 опасность
обморожения
1019.2 1017.3
09 19.03 Ю 3 20 км ясно -27.5 -28.7 89 -37 -36 опасность
обморожения
1018.2 1016.3
12 19.03 Ю 1 20 км 6/0
[Ac trans]
-28.7 -29.9 89 -33 -33 опасность
обморожения
1017.6 1015.7 -27.2
15 19.03 Ю 2 20 км 9/0
[Ac trans]
-25.2 -25.8 95 -32 -32 опасность
обморожения
1016.1 1014.2
18 19.03 ЮЗ 7 10 км слаб. снег {метель} 10/0
[Ac As]
-19.1 -19.7 95 -31 -31 опасность
обморожения
1014.5 1012.7
21 19.03 ЮЗ 6 10 км слаб. снег {метель} 10/0
[Ac As]
-18.1 -18.7 95 -29 -29 1013.7 1011.9
00 20.03 З 4 10 км слаб. снег {метель} 10/0
[Ac As]
-18.5 -19.1 95 -27 -27 1013.3 1011.5 -28.7 2 10
03 20.03 З 2 20 км {снег} 10/0
[Ac trans Ci fib]
-18.8 -19.4 95 -24 -23 1013.6 1011.8
06 20.03 З 3 20 км {снег} 4/0
[Ci fib]
-20.5 -21.1 95 -28 -27 1014.3 1012.5
09 20.03 З 2 20 км ясно -22.1 -22.8 94 -28 -28 1015.3 1013.5
12 20.03 З 2 20 км 3/0
[Ci fib]
-26.8 -27.5 94 -34 -34 опасность
обморожения
1015.7 1013.8 -18.5 0.0
15 20.03 З 2 20 км 4/0
[Ci fib]
-26.5 -27.2 94 -33 -33 опасность
обморожения
1015.6 1013.7
18 20.03 З 6 20 км позёмок 10/0
[Ci fib]
-25.5 -26.1 95 -38 -38 опасность
обморожения
1014.1 1012.3
21 20.03 З 7 20 км позёмок 10/0
[Ac trans Ci fib]
-22.1 -22.8 94 -34 -34 опасность
обморожения
1012.2 1010.4
00 21.03 З 9-10
{11}
4000 м метель 10/0
[Ac As]
-18.4 -19.0 95 -31 -31 опасность
обморожения
1011.2 1009.4 -27.2 10
03 21.03 З 7
{10}
10 км слаб. снег {метель} 10/0
[As op]
-15.9 -16.5 95 -26 -26 1009.7 1007.9
06 21.03 З 6 10 км слаб. снег {метель} 10/0
[Ac As]
-13.2 -13.8 95 -22 -22 1009.3 1007.5
09 21.03 ЮЗ 6 20 км позёмок {снег} 10/0
[Ci fib]
-14.2 -14.8 95 -24 -23 1007.8 1006.0
12 21.03 Ю 3 20 км {снег, метель} 10/0
[Ac trans Ci fib]
-16.1 -16.7 95 -23 -23 1005.7 1003.9 -12.9 0.4
15 21.03 Ю 3 20 км 10/0
[Ac trans Ci fib]
-21.4 -22.0 95 -29 -29 1002.4 1000.6
18 21.03 В 3 20 км 10/0
[Ci fib]
-23.2 -23.8 95 -31 -31 опасность
обморожения
998.4 996.6
21 21.03 В 6 20 км позёмок 10/0
[Ci fib]
-22.3 -23.0 94 -34 -34 опасность
обморожения
996.0 994.2
00 22.03 СВ 8
{10}
10 км слаб. снег {метель} 10/0
[Ac As]
-19.1 -19.7 95 -31 -31 опасность
обморожения
994.7 992.9 -23.2 0.8 10
03 22.03 С 10-11
{13}
4000 м слаб. снег {метель} 10/0
[As op]
-17.0 -17.6 95 -30 -30 994.9 993.1
06 22.03 С 11-12
{14}
4000 м слаб. снег {метель} 10/0
[As op]
-17.1 -17.7 95 -30 -30 995.9 994.1
09 22.03 С 12-13
{15}
1000 м метель {снег} 10/0
[Ci fib]
-19.1 -19.7 95 -33 -33 опасность
обморожения
999.0 997.2
12 22.03 С 12-13
{15}
1000 м метель {снег} 10/0
[Ac trans Ci fib]
-20.6 -21.2 95 -35 -35 опасность
обморожения
1001.7 999.9 -16.9 0.8
15 22.03 С 8
{13}
20 км позёмок 10/0
[Ci fib]
-22.9 -23.5 95 -36 -36 опасность
обморожения
1004.2 1002.4
18 22.03 С 7 20 км позёмок 10/0
[Ci fib]
-25.1 -25.7 95 -38 -38 опасность
обморожения
1006.4 1004.6
21 22.03 С 8
{10}
20 км позёмок 10/0
[Ci fib]
-24.0 -24.6 95 -38 -38 опасность
обморожения
1008.1 1006.3
00 23.03 С 6 20 км позёмок 4/0
[Ci fib]
-27.0 -27.6 95 -40 -40 опасность
обморожения
1009.9 1008.1 -27.0 10
03 23.03 С 4 20 км {метель} 10/0
[Ci fib]
-26.6 -27.2 95 -37 -36 опасность
обморожения
1011.3 1009.5
06 23.03 З 5 20 км {метель} 6/0
[Ci fib]
-26.1 -26.7 95 -38 -37 опасность
обморожения
1012.7 1010.9
09 23.03 З 5 20 км 3/0
[Ci fib]
-27.2 -27.8 95 -39 -39 опасность
обморожения
1013.3 1011.4
12 23.03 З 3 20 км 3/0
[Ci fib]
-30.3 -31.0 94 -40 -40 опасность
обморожения
1014.8 1012.9 -26.1
15 23.03 З 4 20 км 3/0
[Ci fib]
-32.5 -33.1 94 -44 -44 опасность
обморожения
1014.9 1013.0
18 23.03 З 3 20 км ясно -32.2 -32.8 94 -42 -42 опасность
обморожения
1015.0 1013.1
21 23.03 З 1 20 км ясно -33.2 -33.9 93 -38 -38 опасность
обморожения
1015.2 1013.3
00 24.03 штиль 0 20 км ясно -33.8 -34.5 93 -34 -33 опасность
обморожения
1015.5 1013.6 -33.9 10

 

Местоположение метеостанции Анабар (Якутия, Россия): широта 73.22 долгота 113.50 высота над уровнем моря 13 м.

В архиве по умолчанию представлена погода в Анабаре за последнюю неделю. Архивные данные за месяц целиком и за предыдущие месяцы, начиная с января 2011 года, Вы можете получить, выбрав интересующий диапазон дат из раскрывающегося списка и нажав кнопку "Ввод!".


*Определитесь, кто Вы:
робот инопланетянин человек

Внимание! Время в таблицах - всемирное. Для получения местного времени необходимо прибавить поправку, которая равна 9 ч.

Смотрите также архив погоды в соседних городах и на ближайших метеорологических станциях:

Погода в Саскылахе (Якутия, Россия) (140 км)
Погода на Острове Преображения (Якутия, Россия) (162 км)
Погода на Усть-Оленеке (Якутия, Россия) (205 км)
Погода в Джалинде (Якутия, Россия) (344 км)
Погода в Тюмяти (Якутия, Россия) (363 км)
Погода в Хатанге (Красноярский край, Россия) (391 км)
Погода на Столб Острове (Якутия, Россия) (430 км)
Погода в Оленеке (Якутия, Россия) (526 км)
Погода на Мысе Быков (Якутия, Россия) (534 км)
Погода в Сухане (Якутия, Россия) (540 км)

Пояснения к столбцам:

Ветер - указаны скорость ветра в м/с - средняя за 10 мин, порывы в срок и между сроками (в фигурных скобках) и направление, откуда дует ветер: С - северный, СВ - северо-восточный, В - восточный, ЮВ - юго-восточный, Ю - южный, ЮЗ - юго-западный, З - западный, СЗ - северо-западный.
Видимость - горизонтальная дальность видимости в метрах или километрах. При видимости от 1 до 10 км при отсутствии осадков обычно наблюдается дымка, при ухудшении видимости до 1 км и менее - туман. В сухую погоду видимость может ухудшаться дымом, пылью или мглою.
Явления - указаны атмосферные явления, наблюдавшиеся в срок или в последний час перед сроком; фигурными скобками обозначены явления, наблюдавшиеся между сроками (за 1-3 часа до срока); квадратными скобками обозначены град или гололедные отложения с указанием их диаметра в мм.
Облачность - указаны через наклонную черту общая и нижняя облачность в баллах и высота нижней границы облаков в метрах; квадратными скобками обозначены формы облаков: Ci - перистые, Cs - перисто-слоистые, Cc - перисто-кучевые, Ac - высококучевые, As - высокослоистые, Sc - слоисто-кучевые, Ns - слоисто-дождевые, Cu - кучевые, Cb - кучево-дождевые. Подробнее классификацию облаков см. в Атласе облаков (PDF).
T - Температура воздуха - температура, измеренная на высоте 2 м над землей.
Td - Температура точки росы - температура, при понижении до которой содержащийся в воздухе водяной пар достигнет насыщения.
f - Относительная влажность воздуха - влажноcть воздуха, измеренная на высоте 2 м над землей.
Te - Эффективная температура - температура, которую ощущает одетый по сезону человек в тени. Характеристика душности погоды. При расчете учитывается влияние влажности воздуха и скорости ветра на теплоощущения человека.
Tes - Эффективная температура на солнце - температура, которую ощущает человек, с поправкой на солнечный нагрев. Характеристика знойности погоды. Зависит от высоты солнца над горизонтом, облачности и скорости ветра. Ночью, в пасмурную погоду, а также при ветре 12 м/с и более поправка равна нулю.
P - Атмосферное давление - приведенное к уровню моря атмосферное давление.
Po - Атмосферное давление - измеренное на уровне метеостанции атмосферное давление.
Tmin - Минимальная температура - минимум температуры воздуха на высоте 2 м над землей.
Tmax - Максимальная температура - максимум температуры воздуха на высоте 2 м над землей.
R - Количество осадков - Количество выпавших осадков за период времени, мм. При наведении курсора мыши на число - период времени, за который выпало указанное количество осадков.
R24 - Количество осадков - Количество выпавших осадков за 24 часа, мм.
S - Снежный покров - Высота снежного покрова, см. При наведении курсора мыши на число - состояние снежного покрова и степень покрытия местности в баллах.